| time (UTC) | temp F | wind direction | speed knots | gust knots | rain 1hr in | rain 24hr in | rain mn in | humidity % | barometer mb |
| 20260504081519 | 49 | 292 | 0.9 | 2.6 | 0.00 | 0.02 | 0.00 | 43 | 1000.9 |
| 20260504044614 | 49 | 360 | 0.9 | 2.6 | 0.00 | 0.02 | 0.02 | 38 | 1002.3 |
| 20260504043054 | 50 | 295 | 0.9 | 3.5 | 0.00 | 0.02 | 0.02 | 37 | 1002.4 |
| 20260504041553 | 50 | 295 | 1.7 | 3.5 | 0.00 | 0.02 | 0.02 | 37 | 1002.5 |
| 20260504040109 | 51 | 360 | 1.7 | 3.5 | 0.00 | 0.02 | 0.02 | 36 | 1002.6 |
| 20260504034558 | 51 | 360 | 0.9 | 3.5 | 0.00 | 0.02 | 0.02 | 36 | 1002.6 |
| 20260504033054 | 51 | 360 | 0.9 | 1.7 | 0.00 | 0.02 | 0.02 | 35 | 1002.6 |
| 20260504031551 | 52 | 360 | 1.7 | 3.5 | 0.00 | 0.02 | 0.02 | 34 | 1002.4 |
| 20260504030050 | 53 | 360 | 0.9 | 2.6 | 0.00 | 0.02 | 0.02 | 33 | 1002.4 |
| 20260504024550 | 54 | 360 | 1.7 | 3.5 | 0.00 | 0.02 | 0.02 | 32 | 1002.4 |
| 20260504023049 | 55 | 360 | 1.7 | 3.5 | 0.00 | 0.02 | 0.02 | 31 | 1002.2 |
| 20260504021549 | 56 | 300 | 1.7 | 3.5 | 0.00 | 0.02 | 0.02 | 30 | 1002.3 |
| 20260504020047 | 58 | 302 | 1.7 | 4.3 | 0.00 | 0.02 | 0.02 | 29 | 1002.2 |
| 20260504014546 | 61 | 311 | 2.6 | 4.3 | 0.00 | 0.02 | 0.02 | 27 | 1002.4 |
| 20260504013052 | 62 | 319 | 4.3 | 11.3 | 0.00 | 0.02 | 0.02 | 26 | 1002.6 |
| 20260504011543 | 63 | 312 | 3.5 | 10.4 | 0.00 | 0.02 | 0.02 | 25 | 1002.7 |
| 20260504010049 | 64 | 319 | 5.2 | 9.6 | 0.00 | 0.02 | 0.02 | 25 | 1002.7 |
| 20260504004541 | 65 | 315 | 6.1 | 11.3 | 0.00 | 0.02 | 0.02 | 24 | 1002.8 |
| 20260504003039 | 65 | 324 | 7.0 | 10.4 | 0.00 | 0.02 | 0.02 | 25 | 1002.9 |
| 20260504001540 | 66 | 355 | 7.8 | 11.3 | 0.00 | 0.02 | 0.02 | 25 | 1003.0 |
| 20260504000041 | 66 | 309 | 7.8 | 14.8 | 0.00 | 0.02 | 0.02 | 25 | 1003.2 |
| 20260503234535 | 67 | 301 | 7.0 | 13.0 | 0.00 | 0.02 | 0.02 | 23 | 1003.3 |
| 20260503233033 | 67 | 327 | 7.0 | 14.8 | 0.00 | 0.02 | 0.02 | 24 | 1003.4 |
| 20260503231533 | 66 | 13 | 5.2 | 10.4 | 0.00 | 0.02 | 0.02 | 28 | 1003.7 |
| 20260503230037 | 68 | 299 | 7.0 | 12.2 | 0.00 | 0.02 | 0.02 | 25 | 1003.6 |
| 20260503224534 | 68 | 314 | 7.0 | 14.8 | 0.00 | 0.02 | 0.02 | 24 | 1003.6 |
| 20260503223030 | 68 | 5 | 5.2 | 13.9 | 0.00 | 0.02 | 0.02 | 26 | 1003.7 |
| 20260503221527 | 67 | 313 | 8.7 | 11.3 | 0.00 | 0.02 | 0.02 | 25 | 1003.8 |
| 20260503220028 | 68 | 284 | 7.8 | 17.4 | 0.01 | 0.02 | 0.02 | 26 | 1004.0 |
| 20260503214527 | 68 | 309 | 8.7 | 15.6 | 0.01 | 0.02 | 0.02 | 27 | 1004.3 |
| 20260503213021 | 68 | 344 | 6.1 | 13.9 | 0.01 | 0.02 | 0.02 | 28 | 1004.6 |
| 20260503211517 | 67 | 289 | 7.8 | 14.8 | 0.01 | 0.02 | 0.02 | 28 | 1004.7 |
| 20260503210015 | 66 | 326 | 7.0 | 14.8 | 0.00 | 0.01 | 0.01 | 33 | 1004.9 |
| 20260503204519 | 65 | 355 | 1.7 | 11.3 | 0.00 | 0.01 | 0.01 | 34 | 1005.0 |
| 20260503203012 | 64 | 319 | 6.1 | 11.3 | 0.00 | 0.01 | 0.01 | 37 | 1005.3 |
| 20260503201511 | 59 | 263 | 7.0 | 11.3 | 0.01 | 0.01 | 0.01 | 46 | 1005.5 |
| 20260503200011 | 54 | 261 | 2.6 | 6.1 | 0.01 | 0.01 | 0.01 | 51 | 1005.5 |
| 20260503194508 | 50 | 360 | 0.9 | 1.7 | 0.01 | 0.01 | 0.01 | 64 | 1005.7 |
| 20260503193006 | 50 | 360 | 3.5 | 11.3 | 0.01 | 0.01 | 0.01 | 65 | 1006.2 |
| 20260503191516 | 56 | 282 | 20.0 | 30.4 | 0.00 | 0.00 | 0.00 | 45 | 1006.5 |
| 20260503190007 | 62 | 244 | 6.1 | 10.4 | 0.00 | 0.00 | 0.00 | 33 | 1006.0 |
| 20260503184502 | 65 | 236 | 8.7 | 15.6 | 0.00 | 0.00 | 0.00 | 31 | 1006.1 |
| 20260503183058 | 66 | 193 | 2.6 | 13.0 | 0.00 | 0.00 | 0.00 | 33 | 1006.5 |
| 20260503181556 | 64 | 178 | 4.3 | 14.8 | 0.00 | 0.00 | 0.00 | 36 | 1006.8 |
| 20260503174547 | 63 | 193 | 5.2 | 9.6 | 0.00 | 0.00 | 0.00 | 36 | 1007.4 |
| 20260503173051 | 63 | 174 | 2.6 | 12.2 | 0.00 | 0.00 | 0.00 | 38 | 1007.6 |
| 20260503171542 | 62 | 360 | 3.5 | 9.6 | 0.00 | 0.00 | 0.00 | 36 | 1008.0 |